Weather History for KFIT - August, 2013

Change the Weather History Date:

Tuesday, August 20, 2013

  Actual Average (KORH) Record (KORH)
Temperature  
Mean Temperature 75 °F 68 °F  
Max Temperature 87 °F 77 °F 94 °F (1938)
Min Temperature 64 °F 60 °F 46 °F (1990)
Degree Days  
Heating Degree Days 0 1  
Month to date heating degree days 11  
Since 1 June heating degree days 108  
Since 1 July heating degree days 25  
Cooling Degree Days 10 4  
Month to date cooling degree days 104  
Year to date cooling degree days 385  
Since 1 June cooling degree days 363  
Growing Degree Days 25 (Base 50)    
Moisture  
Dew Point 59 °F    
Average Humidity 62    
Maximum Humidity 84    
Minimum Humidity 36    
Precipitation  
Precipitation 0.00 in 0.11 in 3.17 in (1970)
Month to date precipitation 2.51  
Year to date precipitation 30.16  
Sea Level Pressure  
Sea Level Pressure 30.07 in    
Wind  
Wind Speed 6 mph (NW)    
Max Wind Speed 10 mph    
Max Gust Speed -    
Visibility 10 miles    
Events      
T = Trace of Precipitation, MM = Missing Value Source: NWS Daily Summary

Daily Weather History Graph

Daily Weather History Graph

Search for Another Location

Airport or City:

Trip Planner

Search our weather history database for the weather conditions in past years. The results will help you decide how hot, cold, wet, or windy it might be!

Date:

Astronomy

Aug. 20, 2013 Rise Set
Actual Time 5:59 AM EDT 7:40 PM EDT
Civil Twilight 5:29 AM EDT 8:10 PM EDT
Nautical Twilight 4:53 AM EDT 8:46 PM EDT
Astronomical Twilight 4:14 AM EDT 9:25 PM EDT
Moon 7:08 PM EDT (8/20) 5:26 AM EDT (8/20)
Length of Visible Light 14h 40m
Length of Day
13h 41m
Full, 100% of the Moon is Illuminated
Aug 20
Full
Aug 20
Full
Aug 28
Last Quarter
Sep 5
New
Sep 12
First Quarter

Hourly Weather History & Observations

Time (EDT) Temp. Heat Index Dew Point Humidity Pressure Visibility Wind Dir Wind Speed Gust Speed Precip Events Conditions
12:52 AM 70.0 °F - 60.1 °F 71% 30.00 in 10.0 mi Variable 6.9 mph - N/A   Clear
1:52 AM 66.9 °F - 60.1 °F 79% 30.01 in 10.0 mi North 6.9 mph - N/A   Clear
2:52 AM 66.0 °F - 60.1 °F 81% 30.01 in 10.0 mi NNW 4.6 mph - N/A   Clear
3:52 AM 64.9 °F - 59.0 °F 81% 30.02 in 10.0 mi NNW 5.8 mph - N/A   Clear
4:52 AM 64.9 °F - 59.0 °F 81% 30.03 in 10.0 mi NNW 6.9 mph - N/A   Clear
5:52 AM 64.0 °F - 59.0 °F 84% 30.05 in 10.0 mi NW 5.8 mph - N/A   Clear
6:52 AM 64.0 °F - 59.0 °F 84% 30.06 in 8.0 mi Calm Calm - N/A   Clear
7:52 AM 70.0 °F - 59.0 °F 68% 30.07 in 10.0 mi NW 5.8 mph - N/A   Clear
8:52 AM 75.0 °F - 59.0 °F 57% 30.08 in 10.0 mi NNW 4.6 mph - N/A   Clear
9:52 AM 78.1 °F - 59.0 °F 52% 30.09 in - NW 6.9 mph - N/A   Clear
10:52 AM 80.1 °F 80.6 °F 57.9 °F 47% 30.09 in - West 6.9 mph - N/A   Clear
11:52 AM - - - N/A% 30.09 in 10.0 mi NW 5.8 mph - N/A   Clear
12:52 PM 82.9 °F 82.1 °F 55.9 °F 39% 30.08 in 10.0 mi North - - N/A   Clear
1:52 PM 84.9 °F 83.6 °F 55.0 °F 36% 30.07 in 10.0 mi NW 5.8 mph - N/A   Clear
2:52 PM 84.9 °F 83.6 °F 55.0 °F 36% 30.05 in 10.0 mi WSW 9.2 mph - N/A   Clear
3:52 PM 86.0 °F 84.7 °F 55.9 °F 36% 30.06 in 10.0 mi West 8.1 mph - N/A   Clear
4:52 PM 86.0 °F 84.9 °F 57.0 °F 37% 30.06 in 10.0 mi NW 10.4 mph - N/A   Partly Cloudy
5:52 PM 84.0 °F 83.5 °F 57.9 °F 41% 30.06 in 10.0 mi NW 5.8 mph - N/A   Clear
6:52 PM 81.0 °F 81.9 °F 62.1 °F 52% 30.07 in 10.0 mi WSW 3.5 mph - N/A   Clear
7:52 PM 75.0 °F - 64.0 °F 69% 30.09 in 10.0 mi NNW 3.5 mph - N/A   Clear
8:52 PM 72.0 °F - 63.0 °F 73% 30.10 in 10.0 mi North 4.6 mph - N/A   Clear
9:52 PM 69.1 °F - 62.1 °F 78% 30.12 in 10.0 mi Calm Calm - N/A   Clear
10:52 PM 70.0 °F - 60.1 °F 71% 30.11 in 10.0 mi WNW 9.2 mph - N/A   Clear
11:52 PM 69.1 °F - 60.1 °F 73% 30.12 in 10.0 mi NW 6.9 mph - N/A   Clear